Location: ??????????
(31.2156°N, 29.9553°E)
Time: 08:25:33
(UTC+00:00)

Cosmos 1844 Rocket - Pass Details

Date: 03 March 2021
Orbit: 826 x 843 km, 71.0° (Epoch: 15 April)

Event Time Altitude Azimuth Distance (km) Brightness Sun altitude
Rises 16:44:25 0° 356° (N) 3,366 5.9 -10.3°
Reaches altitude 10° 16:47:27 10° 12° (NNE) 2,430 5.0 -10.9°
Maximum altitude 16:51:37 21° 61° (ENE) 1,762 3.9 -11.8°
Enters shadow 16:53:58 17° 93° (E) 1,995 4.0 -12.3°
